Regional Weather Roundup
Issued by NWS

Home | Current Version | Previous Version | Text Only | Print | Product List | Glossary On
Versions: 1 2 3 4 5 6 7 8 9 10 11 12 13 14 15 16 17 18 19 20 21 22 23 24 25 26 27
000
ASUS44 KLIX 232213
RWRLA
LOUISIANA WEATHER ROUNDUP
NATIONAL WEATHER SERVICE NEW ORLEANS LA
500 PM CDT THU MAR 23 2017

NOTE: "FAIR" INDICATES FEW OR NO CLOUDS BELOW 12,000 FEET WITH NO
      SIGNIFICANT WEATHER AND/OR OBSTRUCTIONS TO VISIBILITY.
      SKY/WX - SKY CONDITION AND SIGNIFICANT WEATHER.
      TMP - AIR TEMPERATURE.    DP   - DEWPOINT TEMPERATURE.
      RH  - RELATIVE HUMIDITY.  PRES - PRESSURE.
      HX  - HEAT INDEX.         WCI  - WIND CHILL INDEX.

*  THESE STATIONS ARE NOT NWS OR FAA STATIONS AND ARE NOT UNDER
   NWS QUALITY CONTROL.

LAZ040-048-061>063-065-066-069-232300-
SOUTHEAST LOUISIANA

CITY           SKY/WX    TMP DP  RH WIND       PRES   REMARKS
N.O. INTL ARPT MOSUNNY   81  63  54 SE9       30.16S
N.O. LAKEFRONT SUNNY     78  67  68 E16       30.17S
N.O. DOWNTOWN*   N/A     81  63  54 S13       30.17F
RESERVE*       FAIR      82  61  48 E8        30.15S
SLIDELL        PTSUNNY   77  64  64 SE13      30.18R
BATON ROUGE    MOSUNNY   83  61  47 SE13      30.12F
BOOTHVILLE     PTSUNNY   73  68  84 E8        30.18S
BELLE CHASSE   MOSUNNY   81  66  61 E12       30.17S
BOGALUSA*      FAIR      84  55  36 SE10G18   30.18S
GALLIANO*      CLEAR     78  63  61 E7        30.16F
NEW ROADS*     FAIR      83  59  43 SE8       30.12F
GONZALES*      CLOUDY    83  62  47 E5        30.13S
HAMMOND*       SUNNY     79  61  53 SE12      30.16F
HOUMA*         SUNNY     81  66  61 SE8       30.15F
PORT FOURCHON* CLEAR     73  66  78 E10       30.16S

$$

LAZ041-044-053-054-232300-
SOUTHWEST LOUISIANA

CITY           SKY/WX    TMP DP  RH WIND       PRES   REMARKS
LAKE CHARLES   SUNNY     81  54  39 S10       30.11F
LAFAYETTE      SUNNY     85  55  35 S12       30.12S
PATTERSON      SUNNY     82  64  54 S10       30.14S
SALT POINT       N/A     73  67  81 VRB6      30.13F
NEW IBERIA     SUNNY     84  47  27 S14       30.13F
CHENAULT AIRPK SUNNY     82  52  34 S13       30.11F

$$

LAZ027-028-232300-
CENTRAL LOUISIANA

CITY           SKY/WX    TMP DP  RH WIND       PRES   REMARKS
FORT POLK      SUNNY     83  53  35 S14       30.09F
ALEXANDRIA INT SUNNY     83  50  31 SE9       30.08F
ALEXANDRIA     SUNNY     85  48  27 S9        30.10F

$$

LAZ001-002-232300-
NORTHWEST LOUISIANA

CITY           SKY/WX    TMP DP  RH WIND       PRES   REMARKS
SHREVEPORT     SUNNY     86  50  28 SW17G26   30.03F
BARKSDALE AFB  SUNNY     84  50  30 S14       30.03F
DTN SHREVEPORT SUNNY     85  50  29 S17G28    30.03F

$$

LAZ014-016-232300-
NORTHEAST LOUISIANA

CITY           SKY/WX    TMP DP  RH WIND       PRES   REMARKS
MONROE         SUNNY     85  50  29 S8        30.08F
TALLULAH       SUNNY     85  52  32 VRB6G20   30.10F

$$





USA.gov is the U.S. government's official web portal to all federal, state and local government web resources and services.